Temperature
26 26 25 24 23 23 22 22 22 21 20 18 16 15 14 13 12 12 11 11 10 10 10 10 10 10 10 10 10 10 9 10 9 9 10 10 10 10 10 11 11 11 12 12
25 25 24 22 21 21 20 20 20 19 18 16 15 14 12 12 11 11 11 11 11 11 11 11 10 10 10 10 10 9 9 9 9 9 9 9 9 10 10 10 10 11 11 11
25 24 23 21 18 19 19 18 18 18 16 15 15 13 12 12 12 12 12 12 11 11 11 10 10 10 10 10 10 9 9 9 9 9 9 9 9 9 9 9 10 10 10 11
24 24 22 17 18 17 17 17 17 16 15 14 14 13 13 13 13 12 12 11 11 11 10 10 10 10 9 9 9 9 9 9 9 9 9 9 9 9 8 9 9 9 10 10
23 23 20 17 17 17 16 17 16 15 15 15 14 14 14 14 13 12 11 11 10 10 10 10 9 9 9 9 9 9 9 9 9 9 9 9 8 8 8 8 8 9 9 10
22 21 21 16 17 16 16 16 15 15 14 14 13 14 14 13 11 11 10 10 10 10 9 9 9 9 9 8 8 8 8 8 8 8 8 8 8 8 8 8 8 8 9 9
21 20 18 16 16 17 17 16 14 14 13 13 13 13 12 11 11 10 10 10 10 9 9 9 9 8 8 8 8 8 8 8 8 7 7 7 7 7 7 8 8 8 8 8
20 19 17 16 17 16 15 14 13 13 12 12 12 11 11 11 10 10 10 10 9 9 9 8 8 8 8 8 8 7 7 7 7 7 7 7 7 7 7 7 7 8 8 8
18 18 16 15 15 14 13 13 12 12 12 11 11 11 11 10 10 10 9 9 9 9 8 8 8 8 7 7 7 7 7 6 6 6 7 7 7 7 7 7 7 8 8 8
17 17 16 15 15 14 13 12 11 11 11 11 11 10 10 10 10 9 9 9 8 8 8 8 7 7 7 7 6 6 6 6 6 6 6 6 6 7 7 7 8 8 8 8
17 17 15 15 14 13 12 11 11 11 11 10 10 10 10 9 9 9 8 8 8 8 7 7 7 7 6 6 6 6 6 6 6 6 6 6 6 6 6 7 7 7 8 8
16 15 14 14 13 12 11 11 11 10 10 10 10 10 9 9 9 8 8 8 7 7 7 6 6 6 6 6 5 5 5 5 5 5 6 6 6 6 6 6 6 7 7 7
14 13 13 12 12 11 11 11 10 10 10 10 10 9 9 8 8 8 7 7 7 6 6 6 5 5 5 5 5 5 5 5 5 5 5 5 6 6 6 6 6 6 7 7
12 12 12 12 11 11 10 10 10 10 10 9 9 9 8 8 7 7 7 6 6 6 5 5 5 5 5 5 5 5 5 5 5 5 5 5 5 5 6 6 6 7 7 7
12 12 11 11 11 11 10 10 10 10 9 9 8 8 7 7 6 6 6 5 5 5 5 5 4 4 4 4 4 4 4 4 5 5 5 5 5 5 5 6 6 7 7 7
12 11 11 11 10 10 10 10 9 9 9 8 8 7 7 6 6 5 5 5 4 4 4 4 4 4 4 4 4 4 4 4 4 4 5 5 5 5 5 6 6 6 7 7
11 11 11 10 10 10 9 9 9 8 8 7 7 6 6 5 5 5 4 4 4 4 4 4 4 4 4 4 4 4 4 4 4 4 5 5 5 5 6 6 6 7 7 7
11 10 10 10 9 9 9 8 8 7 7 6 6 5 5 5 4 4 4 4 4 4 4 4 4 4 4 4 4 4 4 5 5 5 5 5 5 6 6 6 6 7 7 7
10 10 9 9 9 8 8 7 7 6 6 6 5 5 4 4 4 4 3 4 4 4 4 4 4 4 4 4 4 4 5 5 5 5 5 5 6 6 6 6 7 7 7 7
10 9 9 8 8 7 7 7 6 6 5 5 4 4 4 4 3 3 3 4 4 4 4 4 4 4 4 5 5 5 5 5 5 5 6 6 6 6 6 7 7 7 7 7
9 9 8 8 7 7 6 6 5 5 5 5 4 4 4 3 3 3 3 4 4 4 4 4 5 5 5 5 5 5 5 5 5 6 6 6 6 6 7 7 7 8 8 8
9 8 8 7 7 6 6 5 5 5 5 4 4 4 3 3 3 3 4 4 4 4 4 5 5 5 5 5 5 5 5 6 6 6 6 6 6 7 7 7 8 8 8 8
8 7 7 6 6 6 6 6 5 4 4 4 4 3 3 3 3 3 3 4 4 4 5 5 5 5 5 5 5 6 6 6 6 6 6 7 7 8 8 8 8 8 8 9
7 7 6 6 6 5 5 5 5 4 4 4 4 3 3 3 3 4 4 4 4 5 5 5 6 6 6 6 6 6 6 6 7 7 7 7 8 8 8 9 9 9 9 9
7 6 6 5 6 5 5 5 5 4 4 4 4 3 3 3 3 4 4 4 5 5 5 6 6 6 6 6 6 6 7 7 7 7 8 8 9 9 9 9 9 10 10 10
6 6 6 5 5 5 5 5 4 4 4 4 3 3 3 3 4 4 4 5 5 5 6 6 6 6 6 7 7 7 7 8 8 8 9 9 9 9 10 10 10 10 10 11
7 7 6 6 6 5 5 4 4 4 4 3 3 3 3 3 4 4 4 5 5 5 6 6 6 6 7 7 7 8 8 8 8 9 9 9 10 10 10 10 11 11 11 11
Wind_Speed
12 10 7 5 5 6 7 8 10 10 5 3 4 7 9 11 13 13 13 12 12 12 12 13 13 13 13 13 13 13 13 13 13 13 13 14 14 15 15 14 14 12 12 12
10 5 2 2 5 4 4 5 6 7 2 3 6 9 11 13 14 15 14 14 15 16 17 17 17 17 17 17 16 15 15 16 15 15 15 14 14 14 15 15 14 12 12 12
7 1 6 2 6 7 5 5 7 8 5 8 12 13 15 16 17 16 16 18 20 20 20 19 19 19 19 19 18 18 18 18 17 16 16 15 15 15 15 14 14 13 12 11
8 8 8 6 5 6 8 6 5 5 8 11 15 17 18 19 16 16 19 22 22 21 21 21 21 20 20 20 19 19 19 19 19 18 17 16 16 15 15 14 13 12 11 10
6 10 2 5 5 8 10 11 3 6 13 17 19 21 20 14 16 20 23 23 22 22 23 22 22 21 21 21 21 20 20 20 19 19 18 18 17 16 15 14 13 11 10 9
6 10 6 5 6 7 8 7 2 13 19 20 22 21 19 21 23 24 23 22 22 23 24 23 22 21 22 22 21 21 20 20 19 19 19 19 18 17 16 14 14 12 10 9
7 6 3 5 8 10 10 10 15 18 20 21 22 21 24 25 24 24 24 24 24 24 23 22 22 22 23 23 22 21 20 20 20 19 19 19 18 17 16 15 14 12 11 9
6 5 3 6 9 9 12 15 18 20 22 23 24 25 25 26 26 26 26 26 25 23 23 22 22 22 23 23 22 21 21 20 20 19 18 17 17 16 15 15 14 12 10 9
5 4 3 6 9 11 13 17 20 20 23 24 25 26 27 26 26 26 26 26 25 25 24 23 22 22 23 23 22 21 21 21 20 19 18 17 17 16 15 13 12 11 9 7
3 3 6 11 11 12 16 19 21 22 24 25 26 28 28 27 26 26 26 25 24 25 25 24 23 23 23 23 21 20 21 20 18 18 18 17 14 14 13 12 12 10 9 8
6 6 11 10 14 18 19 21 22 23 24 25 27 28 28 27 27 26 25 25 24 24 25 26 24 23 23 21 20 20 19 18 17 16 16 15 15 13 13 13 11 10 9 7
6 9 12 17 18 20 21 22 23 25 26 26 26 28 28 26 26 26 26 25 25 25 25 25 24 23 22 21 19 18 17 16 14 14 13 13 13 13 13 15 12 11 10 9
7 12 15 19 20 20 21 24 25 25 27 27 26 26 27 27 25 26 27 27 26 26 25 25 24 24 22 20 18 17 16 15 13 13 13 12 12 12 11 11 15 15 15 15
10 13 17 19 21 21 23 24 25 26 26 26 26 26 26 26 27 27 27 27 26 26 25 25 24 23 21 19 17 17 16 15 14 13 12 11 11 11 10 10 9 9 12 15
11 14 17 20 21 22 24 25 26 26 26 26 26 26 26 27 27 27 27 26 25 25 24 23 23 23 21 18 17 16 15 12 12 11 10 11 11 10 10 10 9 8 7 9
15 17 18 20 22 24 25 27 27 27 27 27 27 27 27 27 26 26 26 25 24 24 24 23 23 22 19 17 15 14 12 15 14 11 10 10 10 10 9 9 9 9 9 9
16 18 19 21 23 25 26 26 26 26 27 27 28 28 27 27 26 25 25 24 24 24 24 22 21 19 17 15 13 11 10 11 13 11 9 9 9 8 8 8 9 9 9 11
14 17 19 21 22 24 26 26 26 26 26 27 27 26 26 26 25 25 25 25 24 23 22 20 18 17 16 14 11 9 9 9 8 8 8 8 8 7 7 7 9 9 9 12
15 17 19 21 22 23 24 24 25 25 25 24 25 25 25 25 24 24 24 24 23 21 20 18 19 18 15 13 12 8 8 8 7 7 7 6 6 6 6 7 8 9 11 13
16 18 20 21 22 22 23 23 24 23 23 24 24 24 24 24 24 24 23 21 17 16 18 19 18 14 12 10 10 7 6 6 6 5 5 4 5 5 6 8 8 10 12 13
16 18 20 21 22 22 22 22 22 23 23 23 23 24 24 24 24 22 20 18 18 19 18 17 13 10 9 9 8 6 5 5 4 3 3 3 3 4 6 7 9 11 12 13
16 17 19 20 20 21 21 20 21 22 23 23 24 23 23 23 23 21 19 15 17 19 16 12 11 11 12 11 5 4 4 3 3 2 2 2 3 4 6 9 10 11 12 13
15 16 18 18 19 20 20 19 21 21 22 23 23 22 21 20 18 17 18 16 16 20 16 11 12 14 14 8 5 3 2 2 2 2 1 2 3 5 7 10 10 12 12 13
14 16 16 17 18 18 19 20 20 19 20 21 20 21 19 17 16 15 15 19 20 20 15 12 13 14 12 6 4 3 3 2 2 1 1 3 5 6 8 10 11 11 13 15
14 15 15 16 16 15 17 19 19 19 19 18 21 21 17 14 16 17 17 19 21 19 15 13 13 12 8 6 5 4 2 2 2 0 3 4 5 7 9 10 10 12 12 13
12 12 12 13 13 13 14 15 15 16 16 17 18 17 16 15 17 17 15 18 20 18 15 12 12 10 8 7 5 4 3 2 1 2 3 5 7 8 9 10 13 12 12 12
11 11 10 11 12 13 13 14 15 16 15 16 18 17 17 16 16 18 18 16 16 15 14 12 12 11 10 10 8 7 5 3 3 3 4 5 7 9 10 12 11 11 11 11
Wind_Direction
286 295 296 309 321 318 302 308 304 320 329 52 360 331 325 323 321 316 314 311 310 308 306 304 303 302 300 300 302 303 303 302 302 303 306 309 311 311 305 292 280 273 264 256
279 278 234 102 25 354 344 335 323 312 299 36 330 319 314 311 306 302 302 302 303 305 306 306 307 305 304 301 298 296 294 295 296 297 299 302 304 306 308 301 288 279 267 256
287 212 224 190 26 2 349 337 324 315 336 332 317 314 311 308 302 301 307 311 311 311 309 307 305 305 302 300 297 294 291 290 290 292 293 295 300 304 305 304 297 284 273 260
293 283 274 78 42 2 334 312 302 303 312 314 309 308 304 297 300 309 312 312 310 309 306 304 304 302 300 298 296 293 291 289 288 287 287 289 291 294 299 298 296 289 277 265
301 300 147 111 24 354 326 306 274 303 317 316 316 310 302 316 324 315 309 307 306 305 304 303 301 301 300 297 295 293 291 290 289 288 286 286 285 287 291 293 289 285 279 268
314 305 317 72 11 336 303 287 44 325 319 318 317 310 314 324 315 308 306 305 304 304 302 300 299 299 297 295 293 292 292 291 290 287 284 282 282 283 285 285 282 279 274 265
325 313 76 34 342 319 305 333 334 321 315 313 311 307 308 309 308 307 305 303 302 301 300 299 299 297 294 292 291 291 291 289 286 283 280 277 275 275 276 277 276 273 269 262
327 317 45 11 337 334 317 317 314 314 313 311 309 306 307 308 308 307 305 304 304 302 299 298 296 294 292 291 291 291 290 287 284 281 279 277 275 272 271 272 268 265 260 254
344 352 9 333 319 316 315 312 314 314 313 311 309 308 309 309 308 307 306 305 304 301 300 299 297 295 292 293 293 290 287 284 282 280 277 274 272 269 267 263 258 259 252 244
288 292 317 317 315 318 320 316 313 312 311 311 310 309 309 309 308 307 306 306 305 303 301 299 298 296 293 293 291 288 285 283 281 278 274 271 267 265 262 259 254 252 246 239
285 312 316 317 327 324 319 315 312 312 311 311 310 309 309 308 308 308 307 306 305 302 300 299 299 296 294 292 290 287 284 282 280 275 271 269 266 261 259 257 253 252 253 241
328 335 316 316 321 319 316 315 314 313 311 311 310 309 309 309 309 308 307 306 304 303 302 301 300 297 294 292 288 284 282 278 274 271 269 265 264 261 243 242 239 224 232 239
309 315 312 312 313 317 317 315 314 313 312 312 313 312 311 310 309 308 307 306 305 304 303 302 300 298 296 294 289 283 278 276 274 270 267 264 261 260 260 242 225 223 218 213
305 309 309 314 317 316 316 316 315 314 314 314 315 314 313 311 310 309 308 307 306 305 303 301 299 296 295 294 290 285 280 275 269 265 262 260 259 257 255 253 241 223 208 198
312 315 312 314 314 317 319 318 318 318 319 318 318 316 315 313 311 310 309 309 308 305 303 302 299 297 296 294 290 284 279 273 267 261 258 257 255 249 245 246 238 219 194 176
314 313 315 319 320 320 321 322 321 320 320 320 319 318 316 313 311 310 311 311 310 306 304 302 299 297 297 293 288 282 274 268 264 263 258 254 247 240 233 231 218 208 195 177
316 319 322 322 322 321 322 322 320 320 320 320 320 319 317 315 314 313 312 312 309 305 303 301 301 301 298 292 286 281 276 268 260 259 254 250 242 232 226 220 206 198 190 170
314 315 319 320 321 322 321 322 322 321 321 320 320 319 317 316 315 314 314 312 310 308 307 308 310 309 304 298 290 282 276 269 259 254 253 248 236 221 214 209 194 190 175 161
318 320 321 322 323 322 322 321 322 321 321 321 320 318 316 316 315 315 315 314 313 312 315 317 314 309 307 301 294 280 274 270 264 258 254 239 222 211 209 201 191 183 166 163
321 323 323 323 324 325 323 322 322 321 321 322 320 319 320 320 320 319 319 316 313 315 317 318 316 314 312 310 305 293 284 277 270 261 251 238 217 207 200 188 182 170 164 166
323 324 325 325 325 324 324 324 322 322 324 324 323 323 323 322 323 323 322 320 321 324 324 318 320 323 323 320 304 293 285 278 272 268 259 235 208 186 180 178 166 161 162 166
325 325 325 325 324 324 325 324 325 326 326 327 327 327 326 326 326 325 322 323 322 325 327 324 327 331 329 318 306 298 286 277 268 258 246 205 183 174 166 156 154 157 159 163
324 324 324 324 324 323 323 327 330 330 329 329 329 330 330 327 326 326 327 327 327 326 327 330 330 326 321 319 317 312 306 299 293 279 232 189 168 156 148 147 149 151 155 160
323 324 323 324 324 324 328 331 330 330 331 330 332 334 332 329 328 329 326 324 327 327 332 333 327 325 318 326 337 349 354 336 320 305 170 151 144 142 143 145 146 151 155 159
323 323 324 327 328 330 329 330 332 334 336 335 336 337 337 333 330 331 331 332 335 334 336 336 332 328 332 346 353 358 359 352 341 38 135 134 136 136 137 141 146 149 154 158
322 321 325 323 327 329 333 334 334 336 337 337 338 338 339 338 336 337 337 338 341 340 345 348 351 347 353 354 5 15 21 38 63 104 108 118 125 128 132 137 140 145 150 154
321 326 327 331 338 340 337 336 335 337 339 342 338 339 342 342 342 342 343 344 346 347 351 354 357 1 5 12 20 22 30 46 66 88 103 111 117 122 129 132 134 136 142 146
Height
1492 1490 1492 1497 1500 1501 1501 1501 1502 1500 1504 1513 1518 1521 1520 1519 1517 1514 1511 1508 1505 1502 1498 1495 1491 1488 1484 1480 1477 1473 1470 1466 1463 1460 1456 1452 1449 1445 1442 1440 1438 1436 1434 1433
1495 1491 1494 1503 1508 1507 1508 1509 1507 1508 1512 1518 1521 1521 1519 1517 1514 1510 1507 1504 1500 1497 1493 1490 1486 1482 1478 1475 1471 1467 1464 1460 1457 1454 1450 1447 1444 1440 1436 1433 1431 1429 1427 1426
1493 1493 1497 1507 1517 1515 1514 1514 1514 1512 1516 1519 1518 1518 1516 1512 1509 1505 1502 1499 1496 1492 1488 1484 1480 1476 1472 1468 1464 1461 1457 1453 1450 1447 1444 1441 1438 1434 1430 1427 1424 1422 1421 1420
1493 1496 1507 1524 1520 1521 1519 1516 1517 1518 1519 1519 1517 1514 1511 1506 1503 1500 1498 1494 1490 1486 1482 1478 1473 1469 1465 1461 1457 1453 1449 1446 1442 1439 1436 1433 1430 1427 1424 1421 1418 1415 1414 1413
1497 1497 1509 1522 1522 1523 1521 1515 1517 1519 1517 1515 1512 1509 1503 1500 1499 1497 1493 1489 1484 1480 1475 1470 1466 1462 1457 1453 1449 1445 1441 1438 1435 1432 1429 1426 1423 1420 1418 1415 1412 1409 1407 1407
1501 1507 1507 1526 1525 1525 1524 1514 1518 1518 1516 1513 1509 1502 1497 1497 1495 1491 1486 1482 1477 1472 1467 1462 1458 1454 1449 1444 1440 1436 1433 1429 1426 1423 1420 1417 1415 1413 1411 1408 1406 1404 1402 1401
1508 1509 1515 1525 1524 1522 1519 1517 1519 1518 1514 1511 1506 1502 1497 1492 1488 1484 1479 1474 1469 1464 1458 1453 1449 1445 1440 1435 1431 1428 1424 1420 1417 1414 1411 1408 1406 1404 1403 1401 1399 1398 1396 1395
1512 1515 1523 1526 1523 1523 1524 1521 1518 1515 1511 1506 1502 1496 1491 1486 1481 1476 1470 1465 1460 1455 1449 1445 1440 1435 1430 1425 1422 1418 1414 1410 1407 1404 1402 1400 1398 1396 1395 1394 1392 1391 1390 1390
1521 1523 1526 1526 1525 1525 1523 1519 1516 1511 1507 1502 1495 1490 1484 1479 1473 1467 1462 1456 1451 1445 1439 1435 1431 1426 1420 1416 1412 1408 1404 1400 1397 1395 1392 1391 1389 1387 1387 1386 1385 1385 1385 1385
1522 1522 1525 1524 1523 1522 1520 1516 1512 1507 1502 1496 1490 1483 1477 1471 1465 1459 1453 1447 1442 1436 1430 1424 1420 1415 1410 1406 1402 1398 1393 1390 1387 1385 1383 1381 1380 1379 1378 1378 1378 1378 1379 1380
1522 1523 1524 1521 1521 1519 1516 1511 1507 1501 1497 1491 1484 1477 1470 1463 1457 1450 1444 1438 1432 1426 1420 1414 1409 1404 1400 1395 1391 1387 1383 1380 1377 1375 1373 1372 1371 1370 1370 1371 1371 1372 1373 1375
1523 1525 1525 1521 1519 1515 1511 1506 1501 1495 1489 1484 1478 1470 1463 1456 1449 1442 1435 1429 1423 1417 1410 1404 1398 1393 1388 1384 1380 1376 1372 1370 1368 1366 1364 1363 1362 1362 1361 1362 1364 1365 1367 1370
1527 1525 1523 1519 1515 1511 1507 1501 1495 1489 1483 1476 1469 1463 1456 1448 1441 1434 1427 1420 1413 1406 1400 1393 1387 1382 1377 1373 1369 1366 1362 1360 1358 1356 1355 1355 1354 1354 1354 1355 1356 1358 1360 1363
1526 1523 1519 1515 1511 1506 1501 1495 1489 1483 1477 1470 1463 1456 1449 1441 1433 1426 1418 1411 1404 1396 1389 1383 1377 1371 1366 1362 1358 1355 1352 1350 1348 1347 1346 1346 1346 1346 1347 1348 1349 1350 1353 1357
1523 1520 1516 1511 1506 1501 1496 1489 1482 1475 1469 1462 1456 1449 1441 1433 1425 1417 1409 1402 1394 1387 1379 1373 1366 1360 1356 1352 1348 1344 1342 1340 1339 1338 1338 1338 1338 1338 1339 1341 1342 1345 1349 1353
1519 1516 1512 1507 1502 1496 1490 1484 1477 1469 1462 1455 1448 1441 1434 1426 1418 1409 1401 1393 1385 1377 1369 1362 1356 1350 1345 1341 1338 1334 1332 1331 1331 1330 1330 1329 1330 1331 1332 1334 1337 1340 1344 1349
1516 1511 1507 1502 1497 1491 1486 1479 1472 1465 1457 1450 1442 1434 1426 1418 1409 1401 1393 1385 1377 1369 1361 1354 1347 1341 1337 1333 1329 1327 1325 1324 1323 1322 1322 1322 1323 1324 1326 1328 1332 1335 1340 1346
1513 1509 1505 1500 1494 1487 1480 1474 1467 1460 1452 1444 1437 1428 1420 1411 1402 1393 1384 1376 1368 1360 1353 1346 1340 1334 1329 1325 1322 1320 1319 1317 1317 1316 1316 1317 1318 1320 1322 1324 1328 1332 1337 1343
1509 1505 1501 1496 1490 1484 1477 1469 1462 1455 1447 1440 1431 1423 1414 1406 1397 1387 1378 1369 1360 1352 1345 1338 1333 1327 1322 1319 1317 1315 1314 1313 1312 1312 1312 1313 1314 1316 1318 1322 1326 1330 1335 1341
1505 1501 1497 1491 1485 1480 1472 1465 1458 1450 1443 1435 1426 1417 1408 1400 1391 1381 1372 1363 1356 1348 1340 1333 1327 1322 1318 1315 1313 1312 1310 1310 1309 1309 1309 1310 1311 1313 1316 1319 1324 1328 1334 1340
1502 1497 1492 1487 1481 1475 1469 1461 1454 1446 1439 1431 1422 1413 1404 1395 1386 1377 1367 1358 1350 1343 1336 1330 1325 1320 1317 1313 1311 1310 1309 1308 1308 1308 1308 1308 1310 1312 1315 1318 1322 1328 1333 1340
1498 1493 1488 1483 1477 1470 1464 1458 1451 1443 1435 1427 1419 1410 1401 1391 1382 1373 1365 1357 1348 1341 1334 1328 1324 1319 1315 1312 1310 1309 1309 1308 1307 1307 1307 1308 1310 1312 1315 1319 1323 1329 1334 1340
1494 1490 1485 1479 1473 1467 1461 1455 1448 1441 1433 1424 1416 1407 1398 1389 1380 1371 1362 1354 1346 1340 1333 1328 1324 1319 1316 1313 1311 1310 1309 1309 1308 1308 1308 1309 1311 1314 1317 1321 1326 1331 1336 1342
1490 1486 1481 1476 1470 1464 1458 1452 1445 1438 1431 1423 1415 1406 1397 1387 1378 1371 1362 1354 1346 1339 1334 1329 1324 1320 1317 1315 1313 1312 1311 1310 1310 1310 1311 1312 1314 1317 1320 1324 1329 1334 1339 1345
1487 1482 1478 1473 1467 1462 1456 1449 1443 1436 1429 1421 1413 1405 1396 1388 1379 1370 1362 1354 1347 1340 1334 1330 1326 1322 1319 1317 1315 1314 1313 1312 1312 1313 1314 1316 1319 1321 1325 1329 1333 1337 1343 1348
1484 1480 1475 1471 1467 1461 1455 1448 1442 1435 1428 1420 1412 1404 1396 1387 1379 1371 1363 1355 1349 1342 1337 1332 1328 1325 1322 1320 1318 1316 1315 1315 1316 1317 1319 1320 1323 1326 1329 1333 1337 1342 1346 1351
1481 1478 1473 1469 1465 1460 1454 1448 1442 1435 1428 1421 1413 1405 1397 1389 1380 1373 1365 1358 1352 1346 1341 1336 1332 1329 1326 1323 1322 1321 1320 1320 1321 1322 1324 1326 1329 1332 1335 1338 1342 1346 1350 1354